Regional Weather Roundup
Issued by NWS

Home | Current Version | Previous Version | Graphics & Text | Print | Product List | Glossary On
Versions: 1 2 3 4 5 6 7 8 9 10 11 12 13 14 15 16 17 18 19 20 21 22 23 24 25 26 27 28 29 30 31 32 33 34 35 36 37 38 39 40 41 42 43 44 45 46 47 48 49 50
000
ASUS43 KTOP 260208
RWRKS

WEATHER ROUNDUP FOR KANSAS
NATIONAL WEATHER SERVICE GOODLAND KS
900 PM CDT FRI JUL 25 2014

NOTE:  "FAIR" INDICATES FEW OR NO CLOUDS BELOW 12,000 FEET WITH NO
SIGNIFICANT WEATHER AND/OR OBSTRUCTIONS TO VISIBILITY.

KSZ001>006-013>018-027>032-041>047-260300-
NORTHWEST KANSAS

CITY           SKY/WX    TMP DP  RH WIND       PRES   REMARKS
GOODLAND       PTCLDY    83  65  54 E7        29.92F
HAYS           CLEAR     90  70  51 NE6       29.78F HX  95
HILL CITY      PTCLDY    86  69  56 NE8       29.81F
RUSSELL        CLEAR     89  68  49 W6        29.75R
$$

KSZ061>065-074>080-084>089-260300-
SOUTHWEST KANSAS

CITY           SKY/WX    TMP DP  RH WIND       PRES   REMARKS
DODGE CITY     MOCLDY    90  61  37 SE8       29.82R
ELKHART          N/A     89  53  29 S9          N/A
GARDEN CITY    PTCLDY    90  62  39 E5        29.83S
GREAT BEND     CLEAR     93  64  38 SW13      29.77R HX  95
LIBERAL        CLEAR     93  54  26 S12       29.85R
PRATT          CLEAR     88  57  35 S13       29.82R
$$

KSZ066>073-081>083-090>101-260300-
SOUTHEAST KANSAS

CITY           SKY/WX    TMP DP  RH WIND       PRES   REMARKS
CHANUTE        CLEAR     84  74  71 S13       29.85R
COFFEYVILLE    CLEAR     84  75  74 S12       29.85S
HUTCHINSON     PTCLDY    94  58  29 S13       29.78R
MEDICINE LODGE   N/A     93  57  29 S12       29.78R
NEWTON         CLEAR     91  57  31 S12       29.84R
PARSONS        CLEAR     84  74  71 S9        29.87R
WICHITA INTL   PTCLDY    90  60  36 S13       29.79R
WICHITA JABRA  CLEAR     90  66  45 S13       29.81R
WICHITA MCCONL PTCLDY    90  63  40 SE15G22   29.81R
WINFIELD       CLEAR     87  73  62 S13       29.84R
$$

KSZ007>012-019>026-033>040-048>060-102>105-260300-
NORTHEAST KANSAS

CITY           SKY/WX    TMP DP  RH WIND       PRES   REMARKS
CONCORDIA      CLEAR     90  73  57 NE7       29.75R HX  98
EMPORIA        MOCLDY    88  71  57 S20G25    29.80R
LAWRENCE       PTCLDY    89  72  56 S14       29.77R HX  96
MANHATTAN      CLEAR     92  68  45 S5        29.74R HX  96
MARYSVILLE     CLEAR     88  73  62 N7        29.74R HX  96
OLATHE IND     PTCLDY    86  73  65 S14       29.80R
OLATHE EXE     PTCLDY    86  74  67 S13G23    29.79S
SALINA         CLEAR     95  62  33 S7        29.74R HX  96
TOPEKA BILLARD PTCLDY    93  70  46 S17G28    29.76R HX  99
TOPEKA FORBES  PTCLDY    90  70  51 S14       29.77S HX  95
$$



USA.gov is the U.S. government's official web portal to all federal, state and local government web resources and services.